Meeker, CO

5:24 PM MDT on May 25, 2018 (GMT -0600)
Meeker

Weather History for KEEO - April, 2013

Change the Weather History Date:

Monday, April 1, 2013

  Actual Average Record
Temperature  
Mean Temperature 45 °F 39 °F  
Max Temperature 61 °F 53 °F 70 °F (2012)
Min Temperature 28 °F 26 °F 10 °F (2008)
Degree Days  
Heating Degree Days 20 26  
Month to date heating degree days 20 26  
Since 1 July heating degree days 6982 6758  
Cooling Degree Days 0 0  
Month to date cooling degree days 0 0  
Year to date cooling degree days 0 0  
Moisture  
Dew Point 29 °F    
Average Humidity 60    
Maximum Humidity 92    
Minimum Humidity 28    
Precipitation  
Precipitation 0.31 in 0.05 in 0.31 in (2013)
Month to date precipitation 0.31 0.05  
Year to date precipitation 1.85 3.23  
Sea Level Pressure  
Sea Level Pressure 29.93 in    
Wind  
Wind Speed 4 mph (North)    
Max Wind Speed 33 mph    
Max Gust Speed 41 mph    
Visibility 9 miles    
Events Rain , Thunderstorm    
T = Trace of Precipitation, MM = Missing Value Source: NWS Daily Summary

Daily Weather History Graph

Daily Weather History Graph

Search for Another Location

Airport or City:

Astronomy

Apr. 01, 2013 Rise Set
Actual Time 6:55 AM MDT 7:36 PM MDT
Civil Twilight 6:27 AM MDT 8:03 PM MDT
Nautical Twilight 5:55 AM MDT 8:35 PM MDT
Astronomical Twilight 5:22 AM MDT 9:09 PM MDT
Moon 12:47 AM MDT (4/1) 10:44 AM MDT (4/1)
Length of Visible Light 13h 35m
Length of Day
12h 41m
Waning Gibbous, 66% of the Moon is Illuminated
Apr 1
Waning Gibbous
Apr 2
Last Quarter
Apr 10
New
Apr 18
First Quarter
Apr 25
Full

Hourly Weather History & Observations

Time (MDT) Temp. Windchill Dew Point Humidity Pressure Visibility Wind Dir Wind Speed Gust Speed Precip Events Conditions
12:53 AM 32.0 °F 26.4 °F 19.0 °F 59% 29.93 in 10.0 mi ENE 5.8 mph - N/A   Clear
1:53 AM 32.0 °F 26.4 °F 19.0 °F 59% 29.92 in 10.0 mi Variable 5.8 mph - N/A   Clear
2:53 AM 30.9 °F 26.2 °F 19.9 °F 64% 29.91 in 10.0 mi Variable 4.6 mph - N/A   Clear
3:53 AM 30.9 °F - 19.9 °F 64% 29.92 in 10.0 mi Calm Calm - N/A   Clear
4:53 AM 30.0 °F 25.2 °F 19.9 °F 66% 29.93 in 10.0 mi East 4.6 mph - N/A   Mostly Cloudy
5:53 AM 30.0 °F - 21.9 °F 72% 29.93 in 10.0 mi Calm Calm - N/A   Overcast
6:53 AM 33.1 °F - 21.9 °F 64% 29.92 in 10.0 mi Calm Calm - N/A   Overcast
7:53 AM 37.9 °F 34.4 °F 21.9 °F 53% 29.97 in 10.0 mi East 4.6 mph - 0.00 in   Overcast
8:53 AM 41.0 °F 39.0 °F 24.1 °F 51% 29.96 in 10.0 mi East 3.5 mph - 0.00 in   Overcast
9:53 AM 48.0 °F - 24.1 °F 39% 29.94 in 10.0 mi Calm Calm - N/A   Overcast
10:53 AM 55.0 °F - 24.1 °F 30% 29.88 in 10.0 mi Calm Calm - N/A   Clear
11:53 AM 57.9 °F - 28.0 °F 32% 29.88 in 10.0 mi SSW 8.1 mph 17.3 mph N/A   Clear
12:53 PM 57.9 °F - 24.1 °F 27% 29.85 in 10.0 mi Calm Calm - N/A   Scattered Clouds
1:48 PM 51.8 °F - 32.0 °F 47% 29.97 in 10.0 mi WSW 17.3 mph 29.9 mph 0.00 in Rain , Thunderstorm Light Thunderstorms and Rain
1:53 PM 51.1 °F - 30.0 °F 44% 29.90 in 10.0 mi WSW 20.7 mph 26.5 mph 0.00 in Rain , Thunderstorm Light Thunderstorms and Rain
2:23 PM 48.2 °F - 30.2 °F 50% 29.96 in 10.0 mi NNW 17.3 mph 24.2 mph 0.00 in Thunderstorm Overcast
2:30 PM 50.0 °F - 30.2 °F 47% 29.95 in 10.0 mi NNW 10.4 mph 24.2 mph 0.00 in   Overcast
2:53 PM 53.1 °F - 30.0 °F 41% 29.86 in 10.0 mi Calm Calm - 0.00 in   Mostly Cloudy
3:53 PM 57.0 °F - 30.0 °F 36% 29.82 in 10.0 mi Variable 3.5 mph - N/A   Clear
4:38 PM 51.8 °F - 33.8 °F 50% 29.90 in 10.0 mi ESE 15.0 mph 20.7 mph 0.00 in Thunderstorm Partly Cloudy
4:53 PM 50.0 °F - 33.1 °F 52% 29.83 in 10.0 mi East 13.8 mph - 0.00 in Thunderstorm Scattered Clouds
5:13 PM 39.2 °F 27.8 °F 32.0 °F 75% 29.96 in 2.0 mi West 27.6 mph 41.4 mph 0.01 in Rain , Thunderstorm Light Thunderstorms and Rain
5:19 PM 37.4 °F 27.5 °F 32.0 °F 81% 29.93 in 1.2 mi NNW 18.4 mph 38.0 mph 0.14 in Rain , Thunderstorm Heavy Thunderstorms and Rain
5:25 PM 37.4 °F 26.1 °F 32.0 °F 81% 29.94 in 4.0 mi NNW 24.2 mph 31.1 mph 0.24 in Rain , Thunderstorm Light Thunderstorms and Rain
5:37 PM 37.4 °F 27.2 °F 32.0 °F 81% 29.97 in 10.0 mi NNW 19.6 mph 26.5 mph 0.28 in Rain , Thunderstorm Light Rain
5:53 PM 37.9 °F 28.5 °F 33.1 °F 83% 29.96 in 10.0 mi NNW 17.3 mph 27.6 mph 0.28 in Rain , Thunderstorm Light Rain
6:08 PM 37.4 °F 28.5 °F 33.8 °F 87% 29.98 in 10.0 mi NW 15.0 mph 27.6 mph 0.00 in Rain Light Rain
6:53 PM 39.9 °F 36.7 °F 34.0 °F 79% 29.95 in 10.0 mi ENE 4.6 mph - 0.01 in   Overcast
7:53 PM 39.9 °F - 35.1 °F 83% 29.96 in 10.0 mi Calm Calm - N/A   Overcast
8:30 PM 39.2 °F 35.0 °F 35.6 °F 87% 30.03 in 8.0 mi West 5.8 mph - 0.02 in Rain Light Rain
8:53 PM 39.0 °F 34.8 °F 35.1 °F 86% 29.96 in 10.0 mi NNE 5.8 mph - 0.02 in Rain Light Rain
9:19 PM 37.4 °F - 35.6 °F 93% 30.02 in 10.0 mi Calm Calm - 0.00 in   Mostly Cloudy
9:53 PM 36.0 °F - 34.0 °F 93% 29.94 in 10.0 mi Calm Calm - 0.00 in   Clear
10:53 PM 36.0 °F 29.6 °F 33.1 °F 89% 29.89 in 10.0 mi NNE 8.1 mph - N/A   Partly Cloudy
11:53 PM 35.1 °F - 33.1 °F 92% 29.87 in 10.0 mi Calm Calm - N/A   Partly Cloudy